North Bennington, VT

2:09 AM EST on January 20, 2017 (GMT -0500)
Morse State

Weather History for KDDH - November, 2012

Change the Weather History Date:

Friday, November 16, 2012

  Actual Average Record
Temperature  
Mean Temperature 30 °F 39 °F  
Max Temperature 39 °F 47 °F 69 °F (2006)
Min Temperature 20 °F 30 °F 18 °F (2003)
Degree Days  
Heating Degree Days 35 26  
Month to date heating degree days 416 388  
Since 1 July heating degree days 1026 1209  
Cooling Degree Days 0 0  
Month to date cooling degree days 0 0  
Year to date cooling degree days 476 313  
Moisture  
Dew Point 22 °F    
Average Humidity 76    
Maximum Humidity 92    
Minimum Humidity 59    
Precipitation  
Precipitation 0.00 in 0.10 in 0.53 in (2006)
Month to date precipitation 0.78 1.65  
Year to date precipitation 29.64 36.45  
Sea Level Pressure  
Sea Level Pressure 30.39 in    
Wind  
Wind Speed 1 mph (SW)    
Max Wind Speed 6 mph    
Max Gust Speed 7 mph    
Visibility 10 miles    
Events      
T = Trace of Precipitation, MM = Missing Value Source: NWS Daily Summary

Daily Weather History Graph

Daily Weather History Graph

Search for Another Location

Airport or City:

Trip Planner

Search our weather history database for the weather conditions in past years. The results will help you decide how hot, cold, wet, or windy it might be!

Date:

Astronomy

Nov. 16, 2012 Rise Set
Actual Time 6:46 AM EST 4:28 PM EST
Civil Twilight 6:16 AM EST 4:58 PM EST
Nautical Twilight 5:41 AM EST 5:33 PM EST
Astronomical Twilight 5:08 AM EST 6:06 PM EST
Moon 9:40 AM EST (11/16) 7:23 PM EST (11/16)
Length of Visible Light 10h 42m
Length of Day
9h 41m
Waxing Crescent, 11% of the Moon is Illuminated
Nov 16
Waxing Crescent
Nov 20
First Quarter
Nov 28
Full
Dec 6
Last Quarter
Dec 13
New

Hourly Weather History & Observations

Time (EST) Temp. Windchill Dew Point Humidity Pressure Visibility Wind Dir Wind Speed Gust Speed Precip Events Conditions
12:54 AM 23.0 °F - 19.0 °F 85% 30.33 in 10.0 mi Calm Calm - N/A   Clear
1:54 AM 21.9 °F - 19.0 °F 89% 30.34 in 10.0 mi Calm Calm - N/A   Clear
2:54 AM 23.0 °F - 19.9 °F 88% 30.34 in 10.0 mi Calm Calm - N/A   Clear
3:54 AM 21.0 °F - 18.0 °F 88% 30.33 in 9.0 mi Calm Calm - N/A   Clear
4:54 AM 21.0 °F - 18.0 °F 88% 30.33 in 6.0 mi Calm Calm - N/A   Clear
5:54 AM 21.0 °F - 18.0 °F 88% 30.34 in 9.0 mi Calm Calm - N/A   Clear
6:54 AM 21.0 °F - 17.1 °F 85% 30.35 in 8.0 mi Calm Calm - N/A   Clear
7:54 AM 21.9 °F - 19.9 °F 92% 30.37 in 9.0 mi Calm Calm - N/A   Clear
8:54 AM 27.0 °F - 23.0 °F 85% 30.39 in 10.0 mi Calm Calm - N/A   Clear
9:54 AM 28.9 °F - 25.0 °F 85% 30.39 in 10.0 mi Calm Calm - N/A   Clear
10:54 AM 30.9 °F - 27.0 °F 85% 30.38 in 10.0 mi Calm Calm - N/A   Clear
11:54 AM 33.1 °F - 27.0 °F 78% 30.37 in 10.0 mi Calm Calm - N/A   Clear
12:54 PM 34.0 °F - 26.1 °F 73% 30.37 in 10.0 mi Calm Calm - N/A   Clear
1:54 PM 36.0 °F 33.3 °F 27.0 °F 70% 30.37 in 10.0 mi WNW 3.5 mph - N/A   Clear
2:54 PM 39.0 °F 36.8 °F 26.1 °F 60% 30.37 in 10.0 mi Variable 3.5 mph - N/A   Clear
3:54 PM 37.0 °F - 26.1 °F 65% 30.39 in 10.0 mi Calm Calm - N/A   Clear
4:54 PM 30.0 °F - 24.1 °F 79% 30.40 in 10.0 mi Calm Calm - N/A   Clear
5:54 PM 28.0 °F - 23.0 °F 81% 30.42 in 10.0 mi Calm Calm - N/A   Clear
6:54 PM 28.0 °F - 24.1 °F 85% 30.43 in 10.0 mi Calm Calm - N/A   Clear
7:54 PM 26.1 °F - 23.0 °F 88% 30.45 in 10.0 mi Calm Calm - N/A   Clear
8:54 PM 26.1 °F - 21.9 °F 84% 30.47 in 10.0 mi Calm Calm - N/A   Clear
9:54 PM 25.0 °F - 21.9 °F 88% 30.48 in 9.0 mi Calm Calm - N/A   Clear
10:54 PM 26.1 °F 19.4 °F 21.9 °F 84% 30.48 in 10.0 mi South 5.8 mph - N/A   Clear
11:54 PM 24.1 °F - 21.0 °F 88% 30.49 in 10.0 mi Calm Calm - N/A   Clear